• In Czech Republic
  • List of Countries
  • For 7 days
  • Water Temperature
  • Satellite Maps
  • Weather Map
  • Weather Widgets
  • user-avatar
    Login

    Hourly Weather Zvezdnyy

    Today, 20 August, Monday

    Time Temperature Precipitation Wind Pressure Humidity
    00:00 +8°C° 0 mm 0 mps 743 mmHg 85%
    01:00 +7°C° 0 mm 0 mps 743 mmHg 87%
    02:00 +7°C° 0 mm 0 mps 743 mmHg 87%
    03:00 +7°C° 0 mm 0 mps 743 mmHg 88%
    04:00 +7°C° 0 mm 0 mps 742 mmHg 89%
    05:00 +8°C° 0 mm 0 mps 742 mmHg 85%
    06:00 +9°C° 0 mm 0 mps 742 mmHg 82%
    07:00 +10°C° 0 mm 0 mps 742 mmHg 78%
    08:00 +12°C° 0 mm 0 mps 742 mmHg 70%
    09:00 +16°C° 0 mm 1 mps 742 mmHg 63%
    10:00 +19°C° 0 mm 1 mps 742 mmHg 55%
    11:00 +19°C° 0 mm 1 mps 741 mmHg 52%
    12:00 +20°C° 0 mm 1 mps 741 mmHg 49%
    13:00 +21°C° 0 mm 1 mps 741 mmHg 46%
    14:00 +21°C° 0 mm 1 mps 740 mmHg 47%
    15:00 +20°C° 0 mm 2 mps 740 mmHg 47%
    16:00 +20°C° 0 mm 2 mps 740 mmHg 48%
    17:00 +19°C° 0 mm 2 mps 740 mmHg 55%
    18:00 +18°C° 0 mm 1 mps 739 mmHg 63%
    19:00 +16°C° 0 mm 1 mps 739 mmHg 71%
    20:00 +15°C° 0 mm 1 mps 739 mmHg 73%
    21:00 +14°C° 0 mm 1 mps 739 mmHg 75%
    22:00 +13°C° 0 mm 1 mps 739 mmHg 78%
    23:00 +12°C° 0 mm 1 mps 738 mmHg 79%

    Tomorrow, 21 August, Tuesday

    Time Temperature Precipitation Wind Pressure Humidity
    00:00 +12°C° 0 mm 1 mps 738 mmHg 80%
    01:00 +10°C° 0 mm 2 mps 738 mmHg 82%
    02:00 +12°C° 0 mm 2 mps 738 mmHg 81%
    03:00 +12°C° 0 mm 2 mps 738 mmHg 81%
    04:00 +12°C° 0 mm 2 mps 738 mmHg 80%
    05:00 +13°C° 0 mm 2 mps 737 mmHg 81%
    06:00 +14°C° 0 mm 2 mps 737 mmHg 81%
    07:00 +13°C° 0 mm 3 mps 737 mmHg 81%
    08:00 +16°C° 0 mm 3 mps 737 mmHg 79%
    09:00 +17°C° 0 mm 3 mps 737 mmHg 76%
    10:00 +19°C° 0 mm 3 mps 737 mmHg 73%
    11:00 +19°C° 0.1 mm 3 mps 737 mmHg 75%
    12:00 +20°C° 0.1 mm 3 mps 737 mmHg 76%
    13:00 +20°C° 0.1 mm 3 mps 736 mmHg 77%
    14:00 +20°C° 0.4 mm 3 mps 736 mmHg 78%
    15:00 +21°C° 0.4 mm 3 mps 736 mmHg 78%
    16:00 +21°C° 0.4 mm 3 mps 735 mmHg 78%
    17:00 +20°C° 0.2 mm 3 mps 735 mmHg 83%
    18:00 +19°C° 0.2 mm 2 mps 735 mmHg 88%
    19:00 +18°C° 0.2 mm 2 mps 735 mmHg 92%
    20:00 +17°C° 0.1 mm 2 mps 735 mmHg 94%
    21:00 +16°C° 0.1 mm 2 mps 734 mmHg 96%
    22:00 +16°C° 0.1 mm 2 mps 734 mmHg 97%
    23:00 +15°C° 0 mm 2 mps 734 mmHg 97%

    Day after tomorrow, 22 August, Wednesday

    Time Temperature Precipitation Wind Pressure Humidity
    00:00 +15°C° 0 mm 2 mps 734 mmHg 97%
    01:00 +15°C° 0 mm 2 mps 733 mmHg 97%
    02:00 +15°C° 0 mm 2 mps 733 mmHg 98%
    03:00 +15°C° 0 mm 2 mps 733 mmHg 98%
    04:00 +15°C° 0 mm 2 mps 733 mmHg 98%
    05:00 +14°C° 0 mm 3 mps 732 mmHg 97%
    06:00 +16°C° 0 mm 3 mps 732 mmHg 96%
    07:00 +16°C° 0 mm 3 mps 732 mmHg 94%
    08:00 +18°C° 0 mm 4 mps 732 mmHg 88%
    09:00 +19°C° 0 mm 4 mps 732 mmHg 82%
    10:00 +20°C° 0 mm 4 mps 732 mmHg 76%
    11:00 +20°C° 0.2 mm 5 mps 732 mmHg 75%
    12:00 +20°C° 0.2 mm 5 mps 732 mmHg 75%
    13:00 +21°C° 0.2 mm 5 mps 731 mmHg 74%
    14:00 +19°C° 0.2 mm 5 mps 732 mmHg 79%
    15:00 +17°C° 0.2 mm 5 mps 732 mmHg 83%
    16:00 +17°C° 0.2 mm 4 mps 732 mmHg 88%
    17:00 +15°C° 0.3 mm 4 mps 732 mmHg 90%
    18:00 +13°C° 0.3 mm 3 mps 732 mmHg 91%
    19:00 +12°C° 0.3 mm 3 mps 732 mmHg 93%
    20:00 +13°C° 0.1 mm 2 mps 732 mmHg 94%
    21:00 +12°C° 0.1 mm 2 mps 732 mmHg 94%
    22:00 +10°C° 0.1 mm 2 mps 732 mmHg 95%
    23:00 +10°C° 0 mm 2 mps 733 mmHg 95%

    23 August, Thursday

    Time Temperature Precipitation Wind Pressure Humidity
    00:00 +9°C° 0 mm 2 mps 733 mmHg 96%
    01:00 +9°C° 0 mm 2 mps 733 mmHg 97%
    02:00 +8°C° 0 mm 2 mps 733 mmHg 97%
    03:00 +8°C° 0 mm 2 mps 733 mmHg 97%
    04:00 +8°C° 0 mm 2 mps 733 mmHg 97%
    05:00 +8°C° 0 mm 2 mps 734 mmHg 96%
    06:00 +8°C° 0 mm 3 mps 734 mmHg 94%
    07:00 +9°C° 0 mm 3 mps 734 mmHg 93%
    08:00 +9°C° 0 mm 3 mps 734 mmHg 90%
    09:00 +8°C° 0 mm 4 mps 734 mmHg 87%
    10:00 +10°C° 0 mm 4 mps 734 mmHg 84%
    11:00 +10°C° 0.1 mm 4 mps 734 mmHg 82%
    12:00 +10°C° 0.1 mm 4 mps 735 mmHg 80%
    13:00 +10°C° 0.1 mm 4 mps 735 mmHg 78%
    14:00 +10°C° 0.2 mm 4 mps 735 mmHg 79%
    15:00 +10°C° 0.2 mm 4 mps 736 mmHg 80%
    16:00 +9°C° 0.2 mm 5 mps 736 mmHg 81%
    17:00 +10°C° 0.1 mm 4 mps 736 mmHg 82%
    18:00 +8°C° 0.1 mm 4 mps 736 mmHg 84%
    19:00 +8°C° 0.1 mm 4 mps 736 mmHg 85%
    20:00 +8°C° 0.1 mm 4 mps 736 mmHg 88%
    21:00 +8°C° 0.1 mm 3 mps 736 mmHg 90%
    22:00 +8°C° 0.1 mm 3 mps 736 mmHg 92%
    23:00 +8°C° 0.3 mm 3 mps 736 mmHg 92%

    24 August, Friday

    Time Temperature Precipitation Wind Pressure Humidity
    00:00 +7°C° 0.3 mm 4 mps 736 mmHg 93%
    01:00 +7°C° 0.3 mm 4 mps 736 mmHg 94%
    02:00 +7°C° 0.2 mm 4 mps 736 mmHg 94%
    03:00 +7°C° 0.2 mm 4 mps 736 mmHg 94%
    04:00 +7°C° 0.2 mm 4 mps 736 mmHg 94%
    05:00 +7°C° 0 mm 4 mps 736 mmHg 93%
    06:00 +7°C° 0 mm 4 mps 736 mmHg 93%
    07:00 +7°C° 0 mm 4 mps 736 mmHg 92%
    08:00 +8°C° 0.1 mm 4 mps 736 mmHg 90%
    09:00 +8°C° 0.1 mm 4 mps 736 mmHg 87%
    10:00 +10°C° 0.1 mm 4 mps 736 mmHg 85%
    11:00 +10°C° 0.2 mm 4 mps 736 mmHg 85%
    12:00 +10°C° 0.2 mm 4 mps 736 mmHg 86%
    13:00 +10°C° 0.2 mm 4 mps 736 mmHg 86%
    14:00 +11°C° 0.1 mm 4 mps 736 mmHg 83%
    15:00 +12°C° 0.1 mm 4 mps 737 mmHg 80%
    16:00 +12°C° 0.1 mm 4 mps 737 mmHg 77%
    17:00 +12°C° 0 mm 4 mps 737 mmHg 79%
    18:00 +11°C° 0 mm 3 mps 737 mmHg 81%
    19:00 +11°C° 0 mm 3 mps 738 mmHg 82%
    20:00 +11°C° 0.1 mm 3 mps 738 mmHg 84%
    21:00 +10°C° 0.1 mm 3 mps 738 mmHg 86%
    22:00 +10°C° 0.1 mm 3 mps 738 mmHg 88%
    23:00 +10°C° 0.5 mm 3 mps 738 mmHg 90%

    25 August, Saturday

    Time Temperature Precipitation Wind Pressure Humidity
    00:00 +9°C° 0.5 mm 3 mps 738 mmHg 93%
    01:00 +9°C° 0.5 mm 3 mps 738 mmHg 95%
    02:00 +9°C° 0.2 mm 3 mps 738 mmHg 95%
    03:00 +9°C° 0.2 mm 3 mps 739 mmHg 95%
    04:00 +9°C° 0.2 mm 3 mps 739 mmHg 95%
    05:00 +10°C° 0 mm 3 mps 739 mmHg 95%
    06:00 +10°C° 0 mm 3 mps 739 mmHg 95%
    07:00 +10°C° 0 mm 4 mps 739 mmHg 94%
    08:00 +11°C° 0 mm 4 mps 739 mmHg 94%
    09:00 +11°C° 0 mm 3 mps 739 mmHg 93%
    10:00 +12°C° 0 mm 3 mps 740 mmHg 92%
    11:00 +12°C° 0 mm 4 mps 740 mmHg 91%
    12:00 +13°C° 0 mm 4 mps 740 mmHg 89%
    13:00 +13°C° 0 mm 4 mps 740 mmHg 88%
    14:00 +13°C° 0 mm 4 mps 740 mmHg 88%
    15:00 +13°C° 0 mm 3 mps 740 mmHg 87%
    16:00 +14°C° 0 mm 3 mps 740 mmHg 86%
    17:00 +13°C° 0 mm 3 mps 740 mmHg 88%
    18:00 +13°C° 0 mm 3 mps 740 mmHg 90%
    19:00 +14°C° 0 mm 2 mps 741 mmHg 91%
    20:00 +13°C° 0 mm 2 mps 741 mmHg 93%
    21:00 +12°C° 0 mm 2 mps 741 mmHg 95%
    22:00 +10°C° 0 mm 2 mps 741 mmHg 97%
    23:00 +10°C° 0 mm 2 mps 741 mmHg 97%
    Show more